CW5557 Weather Reports


Display with metric or nautical units.
time (UTC)temp
F
wind
direction
speed
MPH
gust
MPH
rain 1hr
in
rain 24hr
in
rain mn
in
humidity
%
barometer
mb
20180622081710 62 77 1.0 2.0 0.00 0.00 0.00 94 1018.1
20180622080710 62 77 2.0 3.0 0.00 0.00 0.00 94 1018.1
20180622074711 62 77 1.0 3.0 0.00 0.00 0.00 94 1018.1
20180622073710 62 77 1.0 3.0 0.00 0.00 0.00 94 1018.1
20180622071710 62 36 0.0 1.0 0.00 0.00 0.00 94 1018.2
20180622070715 62 36 0.0 1.0 0.00 0.00 0.00 94 1018.2
20180622064710 62 36 0.0 2.0 0.00 0.00 0.00 94 1018.2
20180622063713 62 32 0.0 1.0 0.00 0.00 0.00 94 1018.6
20180622061710 62 30 0.0 0.0 0.00 0.00 0.00 94 1018.6
20180622060710 62 30 0.0 3.0 0.00 0.00 0.00 94 1018.7
20180622054710 62 30 2.0 5.0 0.00 0.00 0.00 94 1019.4
20180622053710 63 127 2.0 3.0 0.00 0.00 0.00 94 1019.4
20180622051712 63 140 0.0 0.0 0.00 0.00 0.00 94 1019.5
20180622044711 63 26 0.0 1.0 0.00 0.00 0.00 94 1019.7
20180622043712 63 26 0.0 1.0 0.00 0.00 0.00 94 1019.9
20180622041711 63 26 0.0 2.0 0.00 0.00 0.00 94 1019.9
20180622040710 63 26 0.0 5.0 0.00 0.00 0.00 94 1020.0
20180622034711 64 23 1.0 3.0 0.00 0.00 0.00 94 1020.3
20180622033711 64 64 0.0 3.0 0.00 0.00 0.00 94 1020.5
20180622031711 64 136 0.0 3.0 0.00 0.00 0.00 94 1020.5
20180622030711 65 86 2.0 3.0 0.00 0.00 0.00 94 1020.4
20180622024711 65 46 0.0 2.0 0.00 0.01 0.00 94 1020.4
20180622023712 65 46 2.0 3.0 0.00 0.01 0.00 94 1020.2
20180622021711 65 119 1.0 3.0 0.00 0.01 0.00 94 1020.2
20180622020712 65 63 0.0 6.0 0.00 0.01 0.00 94 1020.1
20180622014712 65 61 0.0 3.0 0.00 0.01 0.00 94 1019.8
20180622013712 66 58 0.0 3.0 0.00 0.02 0.00 94 1019.8
20180622011711 66 59 0.0 3.0 0.00 0.02 0.00 93 1019.5
20180622010712 66 81 1.0 3.0 0.00 0.02 0.00 93 1019.4
20180622004711 66 90 0.0 3.0 0.00 0.02 0.00 93 1019.3
20180622003711 66 90 0.0 3.0 0.00 0.02 0.00 93 1019.3
20180622001712 66 111 1.0 3.0 0.00 0.02 0.00 93 1019.1
20180622000716 67 111 0.0 3.0 0.00 0.02 0.00 93 1018.8
20180621231713 68 134 2.0 6.0 0.00 0.51 0.00 90 1018.6
20180621230712 69 160 0.0 3.0 0.00 0.81 0.00 89 1017.8
20180621224711 69 227 0.0 2.0 0.00 1.23 0.00 87 1017.8
20180621223713 69 231 0.0 1.0 0.00 1.47 0.00 87 1017.8
20180621221716 70 231 0.0 1.0 0.00 1.47 0.00 85 1017.9
20180621220711 70 231 0.0 3.0 0.00 1.47 0.00 85 1017.9
20180621214711 71 230 0.0 3.0 0.00 1.47 0.00 85 1017.9
20180621213719 71 230 0.0 2.0 0.00 1.47 0.00 84 1017.8
20180621211711 71 230 1.0 5.0 0.00 1.47 0.00 84 1017.7
20180621210719 71 184 1.0 3.0 0.00 1.47 0.00 83 1017.7
20180621204712 72 234 1.0 3.0 0.00 1.47 0.00 85 1017.7
20180621203711 72 234 0.0 5.0 0.00 1.47 0.00 85 1017.7
20180621201712 71 199 2.0 5.0 0.00 1.47 0.00 84 1017.9
20180621200713 72 163 2.0 6.0 0.00 1.47 0.00 84 1017.9
20180621194712 71 204 1.0 6.0 0.00 1.47 0.00 87 1018.9
20180621193711 70 136 1.0 3.0 0.00 1.47 0.00 86 1018.9
20180621191713 70 209 1.0 3.0 0.00 1.47 0.00 87 1018.9
20180621190712 70 233 2.0 6.0 0.00 1.47 0.00 87 1018.9
20180621184711 70 195 1.0 3.0 0.00 1.47 0.00 87 1018.9
20180621183713 70 218 2.0 7.0 0.00 1.47 0.00 86 1018.9
20180621181712 69 211 1.0 3.0 0.00 1.47 0.00 89 1019.3
20180621180712 69 196 0.0 7.0 0.00 1.47 0.00 88 1019.3
20180621174712 70 197 1.0 3.0 0.00 1.47 0.00 89 1019.4
20180621173711 69 247 1.0 7.0 0.00 1.47 0.00 93 1019.9
20180621171712 67 200 0.0 2.0 0.00 1.47 0.00 94 1019.9
20180621170712 67 194 0.0 3.0 0.00 1.47 0.00 94 1020.3
20180621164711 66 340 1.0 3.0 0.00 1.47 0.00 94 1020.5
20180621163716 66 222 2.0 5.0 0.00 1.47 0.00 94 1020.5
20180621154716 65 211 1.0 3.0 0.00 1.47 0.00 93 1020.9
20180621153713 65 211 1.0 3.0 0.00 1.47 0.00 93 1021.0
20180621151712 65 155 1.0 3.0 0.00 1.47 0.00 93 1021.2
20180621150712 64 220 0.0 5.0 0.00 1.47 0.00 93 1021.2
20180621144712 64 211 0.0 5.0 0.00 1.47 0.00 93 1021.2
20180621143712 64 219 1.0 6.0 0.00 1.47 0.00 93 1021.2
20180621141712 64 186 1.0 2.0 0.00 1.47 0.00 93 1021.4
20180621140712 64 186 0.0 3.0 0.00 1.47 0.00 93 1021.4
20180621134712 64 161 1.0 3.0 0.00 1.47 0.00 93 1021.4
20180621133712 64 202 1.0 3.0 0.00 1.47 0.00 93 1021.4
20180621131713 64 201 1.0 3.0 0.00 1.47 0.00 93 1020.7
20180621130713 64 207 1.0 3.0 0.00 1.47 0.00 93 1020.7
20180621124713 63 233 0.0 3.0 0.00 1.47 0.00 93 1020.7
20180621123712 63 218 1.0 3.0 0.00 1.47 0.00 93 1020.7
20180621121713 63 140 0.0 2.0 0.00 1.47 0.00 93 1020.7
20180621120712 63 140 0.0 3.0 0.00 1.47 0.00 93 1020.7
20180621114712 63 140 2.0 3.0 0.00 1.47 0.00 93 1020.5
20180621113712 63 140 1.0 2.0 0.00 1.47 0.00 93 1020.5
20180621111712 63 140 0.0 0.0 0.00 1.47 0.00 93 1020.3
20180621110712 62 140 0.0 1.0 0.00 1.47 0.00 93 1020.3
20180621104712 62 140 0.0 1.0 0.00 1.47 0.00 93 1020.1
20180621103714 62 140 0.0 1.0 0.00 1.47 0.00 93 1019.5
20180621101712 62 140 0.0 1.0 0.00 1.47 0.00 93 1019.5
20180621100712 62 140 0.0 0.0 0.00 1.47 0.00 93 1019.5
20180621094712 62 140 0.0 1.0 0.00 1.47 0.00 93 1019.2
20180621093713 62 140 0.0 2.0 0.00 1.47 0.00 93 1019.2
20180621091714 62 140 1.0 3.0 0.00 1.47 0.00 93 1019.2
20180621090716 62 140 0.0 2.0 0.00 1.47 0.00 93 1019.2